Tracking 25949 objects as of 9-Aug-2022
HD Live streaming from Space Station
objects crossing your sky now

BREEZE-M R/B

Track BREEZE-M R/B now!


NORAD ID: 33280
Int'l Code: 2008-039C
Perigee: 4,441.5 km
Apogee: 35,783.9 km
Inclination: 21.8 °
Period: 714.9 minutes
Semi major axis: 26483 km
RCS: 8.2222 m2 (large)
Launch date: August 18, 2008
Source: Commonwealth of Independent States (former USSR) (CIS)
Launch site: TYURATAM MISSILE AND SPACE COMPLEX (TTMTR)

Note: This is a ROCKET BODY
aabbcc
Your satellite tracking list
Your tracking list is empty




NASA's NSSDC Master Catalog

Two Line Element Set (TLE):
1 33280U 08039C   22220.03641002 -.00000428  00000-0  00000-0 0  9995
2 33280  21.8317 226.6434 5917311 322.5771   8.0903  2.01435505102739
Source of the keplerian elements: AFSPC